Regional Weather Roundup
Issued by NWS

Home | Current Version | Previous Version | Text Only | Print | Product List | Glossary Off
Versions: 1 2 3 4 5 6 7 8 9 10 11 12 13 14 15 16 17 18 19 20 21 22 23 24 25 26 27 28 29 30 31 32 33 34 35 36 37 38 39 40 41 42 43 44 45 46 47 48

000
ASUS45 KCYS 132210
RWRWY

WYOMING REGIONAL WEATHER ROUNDUP
NATIONAL WEATHER SERVICE CHEYENNE WY
400 PM MDT SUN JUL 13 2014

NOTE:  "FAIR" INDICATES FEW OR NO CLOUDS BELOW 12,000 FEET
WITH NO SIGNIFICANT WEATHER AND/OR OBSTRUCTIONS TO VISIBILITY.

WYZ001-132300-
YELLOWSTONE NATIONAL PARK

CITY           SKY/WX    TMP DP  RH WIND       PRES   REMARKS
LK YELLOWSTONE   N/A     70  45  40 CALM      30.49F
W YELLOWSTONE  NOT AVBL

$$
WYZ002>013-054>058-071-098>099-132300-
NORTHERN WYOMING

CITY           SKY/WX    TMP DP  RH WIND       PRES   REMARKS
JACKSON        MOSUNNY   82  37  20 CALM        N/A
CODY           MOSUNNY   82  46  28 N10       30.26F
GREYBULL       NOT AVBL
WORLAND        NOT AVBL
SHERIDAN       NOT AVBL
BUFFALO        MOSUNNY   83  43  24 NW17      30.27F
GILLETTE       SUNNY     88  34  14 N18G31    30.20R
HULETT         FAIR      81  46  30 MISG      30.20
NEWCASTLE      FAIR      86  34  15 MISG      30.17

$$
WYZ014>020-022>026-101>103-132300-
CENTRAL WYOMING

CITY           SKY/WX    TMP DP  RH WIND       PRES   REMARKS
BIG PINEY      NOT AVBL
PINEDALE       PTCLDY    79  37  22 NW16G24   30.38F
DUBOIS         MOCLDY    79  43  27 S13G20    30.39F
LANDER         NOT AVBL
RIVERTON       NOT AVBL
CASPER         MOSUNNY   87  43  21 NW13      30.24F
DOUGLAS        MOSUNNY   88  41  19 N8        30.22F

$$
WYZ021-027>030-104>119-132300-
SOUTHERN WYOMING

CITY           SKY/WX    TMP DP  RH WIND       PRES   REMARKS
EVANSTON       NOT AVBL
KEMMERER       PTCLDY    84  32  15 W10G16    30.39F
ROCK SPRINGS   NOT AVBL
DIXON          FAIR      89  38  16 NW12G23   30.32F
RAWLINS        PTSUNNY   81  43  26 NE7       30.34F
SARATOGA       FAIR      81  43  26 N10G17    30.37F
LARAMIE        MOSUNNY   74  52  46 NE14      30.37F
CHEYENNE       PTSUNNY   73  54  51 MISG      30.33F
TORRINGTON     MOSUNNY   84  56  38 VRB5      30.17F

$$


USA.gov is the U.S. government's official web portal to all federal, state and local government web resources and services.